This is the latest recevied weather packets stored in our database for station/object N3OZD-10. If no packets are shown the sender has not sent any weather packets the latest 10 day(s).
| Time | Temp. | Humidity | Pressure | Rain* | Wind** | Luminosity | Snow |
|---|---|---|---|---|---|---|---|
| 1777643552 | 11.67° C | 51% | 1014.9 hPa | 0.25 mm | - | - | - |
| 1777643252 | 11.67° C | 54% | 1014.8 hPa | 0.25 mm | - | - | - |
| 1777642952 | 12.22° C | 56% | 1014.9 hPa | 0.51 mm | - | - | - |
| 1777642652 | 12.22° C | 60% | 1014.9 hPa | 0.51 mm | - | - | - |
| 1777642352 | 11.67° C | 59% | 1014.9 hPa | 0.51 mm | - | - | - |
| 1777642055 | 11.67° C | 61% | 1015 hPa | 0.51 mm | - | - | - |
| 1777641754 | 11.11° C | 60% | 1015 hPa | 0.25 mm | - | - | - |
| 1777641453 | 11.11° C | 58% | 1015.1 hPa | 0.25 mm | - | - | - |
| 1777641154 | 11.67° C | 62% | 1015.2 hPa | 0.25 mm | - | - | - |
| 1777640852 | 11.67° C | 65% | 1015.2 hPa | 0.25 mm | - | - | - |
| 1777640552 | 11.67° C | 64% | 1015.2 hPa | 0.25 mm | - | - | - |
| 1777640252 | 11.67° C | 64% | 1015.2 hPa | 0.25 mm | - | - | - |
| 1777639953 | 11.11° C | 67% | 1015.3 hPa | 0.25 mm | - | - | - |
| 1777639655 | 11.11° C | 68% | 1015.3 hPa | 0.25 mm | - | - | - |
| 1777639352 | 11.11° C | 67% | 1015.2 hPa | 0 mm | - | - | - |
| 1777639052 | 11.11° C | 69% | 1015.3 hPa | 0 mm | - | - | - |
| 1777638753 | 11.11° C | 68% | 1015.2 hPa | 0 mm | - | - | - |
| 1777638452 | 10.56° C | 68% | 1015.2 hPa | 0 mm | - | - | - |
| 1777638152 | 10.56° C | 70% | 1015.2 hPa | 0 mm | - | - | - |
| 1777637853 | 10.56° C | 72% | 1015.2 hPa | 0 mm | - | - | - |
| 1777637552 | 10° C | 70% | 1015.1 hPa | 0 mm | - | - | - |
| 1777637252 | 10° C | 72% | 1015.1 hPa | 0 mm | - | - | - |
| 1777636952 | 9.44° C | 73% | 1015 hPa | 0 mm | - | - | - |
| 1777636652 | 9.44° C | 74% | 1015.1 hPa | 0.25 mm | - | - | - |
| 1777636353 | 8.89° C | 75% | 1015 hPa | 0.25 mm | - | - | - |
* Rain latest hour (hover to see other rain measurements)
** Current wind speed in m/s (hover to see current wind gust speed)